Sanford, NC

12:42 AM EDT on September 24, 2017 (GMT -0400)
Raleigh Executive Jetport

Weather History for KTTA - September, 2013

Change the Weather History Date:

Tuesday, September 3, 2013

  Actual Average (KHRJ) Record (KHRJ)
Temperature  
Mean Temperature 76 °F -  
Max Temperature 83 °F 87 °F 100 °F (1980)
Min Temperature 68 °F 65 °F 49 °F (1967)
Cooling Degree Days 10    
Growing Degree Days 26 (Base 50)    
Moisture  
Dew Point 70 °F    
Average Humidity 87    
Maximum Humidity 96    
Minimum Humidity 66    
Precipitation  
Precipitation 0.47 in - - ()
Sea Level Pressure  
Sea Level Pressure 29.86 in    
Wind  
Wind Speed 1 mph (SSW)    
Max Wind Speed 8 mph    
Max Gust Speed -    
Visibility 7 miles    
Events Rain    
Averages and records for this station are not official NWS values.
T = Trace of Precipitation, MM = Missing Value Source: NWS Daily Summary

Daily Weather History Graph

Daily Weather History Graph

Search for Another Location

Airport or City:

Trip Planner

Search our weather history database for the weather conditions in past years. The results will help you decide how hot, cold, wet, or windy it might be!

Date:

Astronomy

Sep. 03, 2013 Rise Set
Actual Time 6:50 AM EDT 7:40 PM EDT
Civil Twilight 6:24 AM EDT 8:06 PM EDT
Nautical Twilight 5:53 AM EDT 8:36 PM EDT
Astronomical Twilight 5:21 AM EDT 9:08 PM EDT
Moon 5:04 AM EDT (9/3) 6:25 PM EDT (9/3)
Length of Visible Light 13h 42m
Length of Day
12h 50m
Waning Crescent, 3% of the Moon is Illuminated
Sep 3
Waning Crescent
Sep 5
New
Sep 12
First Quarter
Sep 19
Full
Sep 26
Last Quarter

Hourly Weather History & Observations

Time (EDT) Temp. Heat Index Dew Point Humidity Pressure Visibility Wind Dir Wind Speed Gust Speed Precip Events Conditions
12:15 AM 72.0 °F - 70.9 °F 96% 29.84 in 5.0 mi Calm Calm - N/A   Clear
12:35 AM 71.8 °F - 70.7 °F 96% 29.84 in 5.0 mi Calm Calm - N/A   Clear
12:55 AM 71.6 °F - 70.5 °F 96% 29.84 in 4.0 mi Calm Calm - N/A   Clear
1:15 AM 71.6 °F - 70.2 °F 95% 29.84 in 5.0 mi Calm Calm - N/A   Clear
1:35 AM 71.6 °F - 70.3 °F 96% 29.84 in 5.0 mi Calm Calm - N/A   Clear
1:55 AM 71.6 °F - 70.0 °F 95% 29.84 in 4.0 mi Calm Calm - N/A   Clear
2:15 AM 71.6 °F - 70.3 °F 96% 29.84 in 5.0 mi Calm Calm - N/A   Clear
2:35 AM 70.9 °F - 69.8 °F 96% 29.83 in 2.5 mi Calm Calm - N/A   Clear
2:55 AM 70.7 °F - 69.6 °F 96% 29.83 in 3.0 mi Calm Calm - N/A   Clear
3:15 AM 70.9 °F - 69.8 °F 96% 29.82 in 3.0 mi Calm Calm - N/A   Clear
3:35 AM 71.1 °F - 70.0 °F 96% 29.81 in 4.0 mi Calm Calm - N/A   Clear
3:55 AM 71.1 °F - 70.0 °F 96% 29.81 in 5.0 mi Calm Calm - N/A   Clear
4:15 AM 72.1 °F - 70.7 °F 95% 29.82 in 7.0 mi SW 3.5 mph - N/A   Clear
4:35 AM 71.2 °F - 69.6 °F 95% 29.82 in 5.0 mi South 3.5 mph - N/A   Clear
4:55 AM 72.0 °F - 70.2 °F 94% 29.82 in 7.0 mi Calm Calm - N/A   Clear
5:15 AM 72.0 °F - 69.8 °F 93% 29.82 in 7.0 mi Calm Calm - N/A   Clear
5:35 AM 70.3 °F - 68.7 °F 95% 29.82 in 3.0 mi Calm Calm - N/A   Clear
5:55 AM 70.0 °F - 68.5 °F 95% 29.82 in 2.5 mi Calm Calm - N/A   Clear
6:15 AM 70.0 °F - 68.7 °F 96% 29.83 in 2.0 mi Calm Calm - N/A   Clear
6:35 AM 70.2 °F - 69.1 °F 96% 29.83 in 3.0 mi Calm Calm - N/A   Clear
6:55 AM 70.2 °F - 69.1 °F 96% 29.84 in 3.0 mi Calm Calm - N/A   Clear
7:15 AM 70.0 °F - 68.9 °F 96% 29.84 in 1.5 mi Calm Calm - N/A   Mist
7:35 AM 70.9 °F - 69.8 °F 96% 29.85 in 2.5 mi South 3.5 mph - N/A   Clear
7:55 AM 71.2 °F - 70.2 °F 96% 29.86 in 2.5 mi Calm Calm - N/A   Clear
8:15 AM 72.1 °F - 70.9 °F 96% 29.88 in 4.0 mi SSW 3.5 mph - N/A   Scattered Clouds
8:35 AM 72.9 °F - 70.9 °F 93% 29.88 in 5.0 mi Calm Calm - N/A   Mostly Cloudy
8:55 AM 74.5 °F - 71.8 °F 91% 29.88 in 5.0 mi South 4.6 mph - N/A   Scattered Clouds
9:15 AM 75.2 °F - 71.1 °F 87% 29.88 in 7.0 mi WSW 4.6 mph - N/A   Mostly Cloudy
9:35 AM 73.4 °F - 71.1 °F 92% 29.88 in 1.0 mi SW 4.6 mph - 0.29 in Rain Heavy Rain
9:55 AM 73.8 °F - 71.8 °F 93% 29.88 in 1.8 mi SSE 4.6 mph - 0.32 in Rain Light Rain
10:15 AM 74.8 °F - 72.5 °F 92% 29.88 in 5.0 mi Calm Calm - N/A   Scattered Clouds
10:35 AM 77.0 °F - 72.3 °F 85% 29.88 in 7.0 mi Calm Calm - 0.01 in   Scattered Clouds
10:55 AM 77.0 °F - 72.7 °F 86% 29.89 in 7.0 mi Calm Calm - 0.01 in   Mostly Cloudy
11:15 AM 78.1 °F - 72.7 °F 83% 29.89 in 7.0 mi WSW 3.5 mph - N/A   Mostly Cloudy
11:35 AM 79.5 °F - 73.4 °F 81% 29.88 in 10.0 mi WSW 5.8 mph - N/A   Scattered Clouds
11:55 AM 81.3 °F 86.8 °F 73.9 °F 78% 29.88 in 10.0 mi SE 3.5 mph - N/A   Clear
12:15 PM 81.9 °F 86.8 °F 72.5 °F 73% 29.88 in 10.0 mi Calm Calm - N/A   Clear
12:35 PM 83.1 °F 88.9 °F 72.7 °F 71% 29.87 in 10.0 mi West 3.5 mph - N/A   Scattered Clouds
12:55 PM 80.6 °F 85.0 °F 72.7 °F 77% 29.86 in 1.8 mi South 4.6 mph - 0.11 in Rain Heavy Rain
1:15 PM 81.3 °F 85.4 °F 71.2 °F 71% 29.86 in 10.0 mi Calm Calm - N/A   Scattered Clouds
1:35 PM 81.9 °F 87.0 °F 72.7 °F 74% 29.86 in 10.0 mi West 3.5 mph - N/A Rain Light Rain
1:55 PM 79.5 °F - 72.7 °F 79% 29.86 in 7.0 mi WSW 4.6 mph - 0.01 in Rain Light Rain
2:15 PM 76.5 °F - 70.3 °F 81% 29.85 in 10.0 mi SSW 4.6 mph - 0.02 in   Mostly Cloudy
2:35 PM 76.3 °F - 70.5 °F 82% 29.83 in 10.0 mi SW 5.8 mph - 0.02 in   Clear
2:55 PM 77.4 °F - 70.3 °F 79% 29.84 in 10.0 mi SSE 3.5 mph - 0.02 in   Clear
3:15 PM 79.5 °F - 70.3 °F 73% 29.83 in 10.0 mi ESE 3.5 mph - N/A   Clear
3:35 PM 80.8 °F 84.4 °F 70.7 °F 71% 29.83 in 10.0 mi ESE 3.5 mph - N/A   Clear
3:55 PM 80.4 °F 83.5 °F 69.6 °F 69% 29.83 in 10.0 mi Calm Calm - N/A   Scattered Clouds
4:15 PM 80.6 °F 83.5 °F 68.5 °F 67% 29.82 in 10.0 mi Calm Calm - N/A   Mostly Cloudy
4:35 PM 80.6 °F 83.4 °F 68.4 °F 66% 29.82 in 10.0 mi SSE 4.6 mph - N/A   Scattered Clouds
4:55 PM 79.7 °F - 69.6 °F 71% 29.82 in 10.0 mi South 6.9 mph - N/A   Clear
5:15 PM 78.1 °F - 67.3 °F 69% 29.84 in 10.0 mi South 5.8 mph - N/A   Clear
5:35 PM 76.3 °F - 68.0 °F 75% 29.85 in 10.0 mi SSW 8.1 mph - N/A   Clear
5:55 PM 76.1 °F - 66.7 °F 73% 29.85 in 10.0 mi SSW 3.5 mph - N/A   Clear
6:15 PM 77.5 °F - 66.2 °F 68% 29.85 in 10.0 mi SSW 3.5 mph - N/A   Clear
6:35 PM 77.5 °F - 66.4 °F 68% 29.85 in 10.0 mi Calm Calm - N/A   Clear
6:55 PM 77.9 °F - 67.5 °F 70% 29.85 in 10.0 mi Calm Calm - N/A   Clear
7:15 PM 75.4 °F - 69.4 °F 82% 29.86 in 10.0 mi SSE 4.6 mph - N/A   Clear
7:35 PM 74.5 °F - 69.6 °F 85% 29.87 in 10.0 mi Calm Calm - N/A   Clear
7:55 PM 73.8 °F - 69.6 °F 87% 29.88 in 10.0 mi Calm Calm - N/A   Clear
8:15 PM 71.4 °F - 69.1 °F 92% 29.88 in 7.0 mi Calm Calm - N/A   Clear
8:35 PM 71.2 °F - 69.4 °F 94% 29.89 in 10.0 mi Calm Calm - N/A   Clear
8:55 PM 70.9 °F - 69.1 °F 94% 29.90 in 10.0 mi Calm Calm - N/A   Clear
9:15 PM 70.3 °F - 68.9 °F 95% 29.91 in 7.0 mi Calm Calm - N/A   Scattered Clouds
9:35 PM 71.2 °F - 69.4 °F 94% 29.91 in 10.0 mi Calm Calm - N/A   Scattered Clouds
9:55 PM 69.8 °F - 68.0 °F 94% 29.93 in 5.0 mi Calm Calm - N/A   Mostly Cloudy
10:15 PM 69.8 °F - 68.2 °F 95% 29.93 in 5.0 mi Calm Calm - N/A   Scattered Clouds
10:35 PM 69.3 °F - 68.0 °F 96% 29.93 in 5.0 mi Calm Calm - N/A   Clear
10:55 PM 68.9 °F - 67.6 °F 96% 29.94 in 5.0 mi Calm Calm - N/A   Scattered Clouds
11:15 PM 68.7 °F - 67.5 °F 96% 29.94 in 5.0 mi Calm Calm - N/A   Clear
11:35 PM 68.5 °F - 67.1 °F 95% 29.95 in 7.0 mi Calm Calm - N/A   Scattered Clouds
11:55 PM 68.0 °F - 66.7 °F 96% 29.96 in 5.0 mi Calm Calm - N/A   Scattered Clouds